Time,TemperatureF,DewpointF,PressureIn,WindDirection,WindDirectionDegrees,WindSpeedMPH,WindSpeedGustMPH,Humidity,HourlyPrecipIn,Conditions,Clouds,dailyrainin,SoftwareType,DateUTC
2013-10-27 00:23:00,64.0,-99.9,30.06,NW,321,11.0,14.0,-999,0.00,,,0.00,,2013-10-27 05:23:00,
2013-10-27 00:52:00,64.0,-99.9,30.06,NNW,340,13.0,13.0,-999,0.00,,,0.00,,2013-10-27 05:52:00,
2013-10-27 01:22:00,62.0,-99.9,30.06,NNE,15,6.0,6.0,-999,0.00,,,0.00,,2013-10-27 06:22:00,
2013-10-27 01:42:00,61.0,-99.9,30.06,NW,314,10.0,10.0,-999,0.00,,,0.00,,2013-10-27 06:42:00,
2013-10-27 01:53:00,60.0,-99.9,30.06,North,352,7.0,7.0,-999,0.00,,,0.00,,2013-10-27 06:53:00,
2013-10-27 02:12:00,60.0,-99.9,30.06,North,349,8.0,8.0,-999,0.00,,,0.00,,2013-10-27 07:12:00,
2013-10-27 02:22:00,60.0,-99.9,30.06,NNE,18,7.0,7.0,-999,0.00,,,0.00,,2013-10-27 07:22:00,
2013-10-27 02:53:00,60.0,-99.9,30.06,NNW,340,5.0,5.0,-999,0.00,,,0.00,,2013-10-27 07:53:00,
2013-10-27 03:22:00,59.0,-99.9,30.07,NNW,339,6.0,6.0,-999,0.00,,,0.00,,2013-10-27 08:22:00,
2013-10-27 03:52:00,58.0,-99.9,30.06,NNW,335,7.0,7.0,-999,0.00,,,0.00,,2013-10-27 08:52:00,
2013-10-27 04:22:00,57.0,-99.9,30.06,WNW,291,1.0,2.0,-999,0.00,,,0.00,,2013-10-27 09:22:00,
2013-10-27 04:54:00,56.0,-99.9,30.05,NNW,339,4.0,4.0,-999,0.00,,,0.00,,2013-10-27 09:54:00,
2013-10-27 05:13:00,56.0,-99.9,30.06,NW,304,2.0,2.0,-999,0.00,,,0.00,,2013-10-27 10:13:00,
2013-10-27 05:23:00,55.0,-99.9,30.05,WNW,298,1.0,0.0,-999,0.00,,,0.00,,2013-10-27 10:23:00,
2013-10-27 05:53:00,55.0,-99.9,30.05,NNW,335,2.0,0.0,-999,0.00,,,0.00,,2013-10-27 10:53:00,
2013-10-27 06:22:00,53.0,-99.9,30.06,North,350,0.0,0.0,-999,0.00,,,0.00,,2013-10-27 11:22:00,
2013-10-27 06:52:00,51.0,-99.9,30.06,SSW,208,1.0,0.0,-999,0.00,,,0.00,,2013-10-27 11:52:00,
2013-10-27 07:22:00,49.0,-99.9,30.06,WNW,291,0.0,0.0,-999,0.00,,,0.00,,2013-10-27 12:22:00,
2013-10-27 07:52:00,51.0,-99.9,30.07,SW,224,0.0,0.0,-999,0.00,,,0.00,,2013-10-27 12:52:00,
2013-10-27 08:22:00,52.0,-99.9,30.07,SSW,205,0.0,0.0,-999,0.00,,,0.00,,2013-10-27 13:22:00,
2013-10-27 08:52:00,55.0,-99.9,30.08,SW,233,2.0,5.0,-999,0.00,,,0.00,,2013-10-27 13:52:00,
2013-10-27 09:22:00,57.0,-99.9,30.09,West,274,2.0,2.0,-999,0.00,,,0.00,,2013-10-27 14:22:00,
2013-10-27 09:52:00,59.0,-99.9,30.11,West,281,2.0,2.0,-999,0.00,,,0.00,,2013-10-27 14:52:00,
2013-10-27 10:22:00,59.0,-99.9,30.11,NNW,329,2.0,4.0,-999,0.00,,,0.00,,2013-10-27 15:22:00,
2013-10-27 10:54:00,61.0,-99.9,30.12,North,352,4.0,4.0,-999,0.00,,,0.00,,2013-10-27 15:54:00,
2013-10-27 11:24:00,62.0,-99.9,30.12,NNW,330,4.0,6.0,-999,0.00,,,0.00,,2013-10-27 16:24:00,
2013-10-27 11:43:00,62.0,-99.9,30.11,North,353,4.0,4.0,-999,0.00,,,0.00,,2013-10-27 16:43:00,
2013-10-27 11:54:00,62.0,-99.9,30.12,North,350,4.0,4.0,-999,0.00,,,0.00,,2013-10-27 16:54:00,
2013-10-27 12:22:00,65.0,-99.9,30.10,North,1,4.0,5.0,-999,0.00,,,0.00,,2013-10-27 17:22:00,
2013-10-27 12:53:00,65.0,-99.9,30.09,NNW,338,4.0,4.0,-999,0.00,,,0.00,,2013-10-27 17:53:00,
2013-10-27 13:22:00,69.0,-99.9,30.07,NW,315,5.0,0.0,-999,0.00,,,0.00,,2013-10-27 18:22:00,
2013-10-27 14:52:00,70.0,-99.9,30.01,WNW,297,1.0,0.0,-999,0.00,,,0.00,,2013-10-27 19:52:00,
2013-10-27 15:22:00,70.0,-99.9,29.98,SW,217,1.0,0.0,-999,0.00,,,0.00,,2013-10-27 20:22:00,
2013-10-27 15:52:00,70.0,-99.9,29.97,SSW,204,4.0,4.0,-999,0.00,,,0.00,,2013-10-27 20:52:00,
2013-10-27 16:22:00,70.0,-99.9,29.96,SSW,201,0.0,3.0,-999,0.00,,,0.00,,2013-10-27 21:22:00,
2013-10-27 16:44:00,69.0,-99.9,29.96,SE,146,0.0,0.0,-999,0.00,,,0.00,,2013-10-27 21:44:00,
2013-10-27 16:54:00,70.0,-99.9,29.95,SW,215,3.0,5.0,-999,0.00,,,0.00,,2013-10-27 21:54:00,
2013-10-27 17:24:00,69.0,-99.9,29.94,SSE,159,0.0,0.0,-999,0.00,,,0.00,,2013-10-27 22:24:00,
2013-10-27 17:43:00,68.0,-99.9,29.94,South,170,3.0,3.0,-999,0.00,,,0.00,,2013-10-27 22:43:00,
2013-10-27 17:54:00,69.0,-99.9,29.93,SSW,211,0.0,2.0,-999,0.00,,,0.00,,2013-10-27 22:54:00,
2013-10-27 18:12:00,68.0,-99.9,29.93,SSE,149,2.0,2.0,-999,0.00,,,0.00,,2013-10-27 23:12:00,
2013-10-27 18:22:00,68.0,-99.9,29.93,South,191,0.0,0.0,-999,0.00,,,0.00,,2013-10-27 23:22:00,
2013-10-27 18:52:00,66.0,-99.9,29.93,South,186,2.0,3.0,-999,0.00,,,0.00,,2013-10-27 23:52:00,
2013-10-27 19:11:00,65.0,-99.9,29.93,South,173,3.0,3.0,-999,0.00,,,0.00,,2013-10-28 00:11:00,
2013-10-27 19:22:00,64.0,-99.9,29.93,SE,124,0.0,0.0,-999,0.00,,,0.00,,2013-10-28 00:22:00,
2013-10-27 19:43:00,63.0,-99.9,29.93,SE,124,0.0,0.0,-999,0.00,,,0.00,,2013-10-28 00:43:00,
2013-10-27 19:52:00,62.0,-99.9,29.93,SE,124,0.0,0.0,-999,0.00,,,0.00,,2013-10-28 00:52:00,
2013-10-27 20:22:00,60.0,-99.9,29.94,ESE,122,4.0,4.0,-999,0.00,,,0.00,,2013-10-28 01:22:00,
2013-10-27 20:52:00,60.0,-99.9,29.94,SE,141,3.0,3.0,-999,0.00,,,0.00,,2013-10-28 01:52:00,
2013-10-27 21:12:00,59.0,-99.9,29.95,SSE,153,3.0,4.0,-999,0.00,,,0.00,,2013-10-28 02:12:00,
2013-10-27 21:22:00,59.0,-99.9,29.95,SE,136,3.0,4.0,-999,0.00,,,0.00,,2013-10-28 02:22:00,
2013-10-27 21:53:00,59.0,-99.9,29.96,South,169,4.0,5.0,-999,0.00,,,0.00,,2013-10-28 02:53:00,
2013-10-27 22:22:00,59.0,-99.9,29.96,SSE,148,6.0,6.0,-999,0.00,,,0.00,,2013-10-28 03:22:00,
2013-10-27 22:44:00,59.0,-99.9,29.96,SSE,158,6.0,6.0,-999,0.00,,,0.00,,2013-10-28 03:44:00,
2013-10-27 22:54:00,58.0,-99.9,29.96,SE,146,5.0,5.0,-999,0.00,,,0.00,,2013-10-28 03:54:00,
2013-10-27 23:14:00,59.0,-99.9,29.96,SE,135,6.0,8.0,-999,0.00,,,0.00,,2013-10-28 04:14:00,
2013-10-27 23:24:00,58.0,-99.9,29.96,SSE,160,6.0,8.0,-999,0.00,,,0.00,,2013-10-28 04:24:00,
2013-10-27 23:53:00,58.0,-99.9,29.96,SSE,165,4.0,4.0,-999,0.00,,,0.00,,2013-10-28 04:53:00,